Theta_e
302 303 304 306 307 308 308 308 308 307 306 307 308 308 308 308 309 309 312 322 320 313 314 317 321 322 324 325 329 330 326 326 324 324 324 325 326 326 328 328 327 328 327 327 326
298 298 299 301 303 304 304 305 306 308 309 308 306 306 306 307 308 309 321 317 319 317 314 314 315 319 325 326 327 326 325 326 323 322 324 324 326 327 327 327 326 327 328 327 326
303 303 302 300 298 299 299 301 303 304 305 307 309 308 306 305 305 309 315 316 318 321 318 314 312 319 327 327 326 326 328 326 325 325 325 327 327 328 327 327 328 327 328 328 326
302 302 303 303 302 302 301 299 299 299 301 303 305 306 309 308 304 312 314 316 316 319 317 313 313 325 324 324 326 326 326 327 326 326 326 325 327 328 328 328 328 328 329 328 326
301 301 302 302 302 302 302 302 302 300 299 299 302 306 306 310 306 311 314 316 316 316 316 312 318 323 322 322 324 323 325 327 327 327 327 327 326 327 327 327 328 329 328 328 326
300 301 301 301 301 302 302 302 302 302 301 300 301 305 308 309 309 310 309 314 311 312 315 312 314 319 322 322 322 324 324 325 325 325 325 325 326 327 328 328 328 328 327 326 326
300 300 300 300 300 300 301 301 301 302 302 302 301 303 307 308 309 310 308 309 310 310 309 311 312 315 319 316 317 318 317 316 318 320 320 323 323 325 325 326 327 327 326 325 326
299 300 300 301 301 300 300 300 301 301 302 303 302 307 306 306 308 309 310 310 308 308 310 310 311 315 316 316 315 317 316 317 318 319 320 321 322 322 324 325 324 324 325 326 326
299 299 300 301 301 301 301 300 300 302 304 305 305 306 306 304 306 308 309 310 311 309 310 311 312 316 315 315 314 313 316 315 316 318 319 321 320 322 322 323 323 324 324 325 325
301 301 301 301 301 301 301 301 301 306 308 305 306 305 305 305 308 308 308 308 310 309 308 309 313 313 311 313 316 314 314 315 316 318 318 318 319 320 321 322 322 323 323 323 324
303 303 302 302 302 302 302 301 307 308 307 307 305 305 304 308 310 309 308 308 307 308 306 309 312 314 313 314 315 314 314 314 315 318 318 318 318 319 320 320 319 321 321 323 324
303 303 303 302 302 303 302 303 305 304 305 306 307 307 306 304 308 308 310 307 307 308 308 312 311 313 314 315 315 315 315 314 316 319 319 318 319 319 319 319 320 321 322 322 324
303 302 302 302 302 303 303 304 304 305 305 307 306 307 307 306 308 307 309 308 308 307 309 309 311 313 315 316 316 316 316 317 317 319 319 319 319 320 320 320 321 322 323 325 325
303 302 301 302 302 303 303 303 304 306 307 306 308 307 308 307 308 306 309 310 308 308 308 309 310 312 316 317 318 317 317 317 319 319 318 318 321 319 319 320 319 321 323 324 324
303 302 301 301 302 303 303 303 304 307 306 303 307 310 309 308 308 309 306 311 312 307 309 308 310 312 314 318 319 318 319 318 319 318 318 319 319 320 318 319 320 319 323 324 322
301 301 301 301 301 302 303 304 306 307 306 305 307 306 307 311 310 311 310 310 313 309 308 309 311 311 314 317 318 318 317 316 316 315 318 318 319 319 319 321 320 320 322 322 323
301 301 301 302 302 302 302 304 304 306 306 307 307 307 308 309 310 312 311 310 312 313 312 310 309 311 313 314 315 314 313 314 315 316 318 318 319 319 319 319 320 320 321 323 323
301 301 302 303 302 302 304 304 305 305 306 306 306 306 307 308 308 309 312 312 310 312 313 312 312 309 313 313 315 317 315 314 317 319 321 319 321 321 319 319 321 321 321 323 323
300 301 305 305 303 303 303 303 303 306 305 305 305 307 307 306 306 309 309 313 313 310 312 312 313 313 312 314 315 315 315 314 317 318 319 318 320 320 320 321 321 320 320 322 323
301 301 304 304 304 303 302 302 303 304 304 304 304 306 306 305 306 307 309 313 312 311 310 312 313 313 312 313 314 313 314 315 313 317 320 319 320 322 322 321 322 322 319 321 323
301 301 304 303 304 304 301 302 303 303 304 304 305 306 305 305 307 307 309 311 309 310 311 310 312 315 312 312 312 311 312 312 314 312 317 319 320 317 320 320 321 320 321 322 323
301 297 302 304 303 300 300 303 303 304 304 304 305 305 305 307 308 307 308 307 306 309 309 309 310 312 313 313 313 313 312 313 314 315 315 318 319 318 318 317 319 319 322 322 324
300 301 302 304 302 303 302 303 304 304 304 304 304 304 304 306 307 308 307 308 306 307 309 310 312 312 313 314 312 313 313 313 311 313 316 318 318 319 320 319 319 320 323 323 324
300 298 301 303 301 303 303 302 304 304 304 303 303 302 304 306 306 308 307 306 307 308 310 308 309 313 314 313 313 313 313 313 312 311 315 318 319 320 324 320 318 321 323 324 324
300 298 301 302 300 302 302 301 302 304 304 304 303 304 305 306 307 309 309 309 308 309 310 305 308 311 311 314 315 316 314 314 313 313 314 315 317 317 318 321 319 322 323 324 325
300 301 300 300 302 302 300 301 303 303 304 307 306 305 305 306 307 307 307 308 308 308 308 308 308 309 311 316 316 316 314 314 313 314 314 316 316 315 317 323 322 323 323 324 325
300 300 301 301 301 301 301 302 302 302 303 305 305 304 304 305 305 305 305 306 308 308 309 309 307 307 310 311 315 316 315 314 315 313 314 316 317 318 322 323 322 324 324 325 326
Wind_Speed
19 22 25 27 29 31 31 30 29 27 27 27 27 27 26 28 29 26 31 26 17 15 15 15 11 17 15 12 11 8 2 6 8 6 8 5 2 3 3 8 8 16 22 27 32
19 20 21 23 25 28 30 30 31 30 28 27 28 28 29 29 31 37 33 31 21 21 23 24 22 20 14 12 10 8 6 11 11 8 7 4 1 16 6 16 16 26 28 26 30
18 18 17 17 20 22 25 27 29 29 30 30 28 28 28 26 28 34 34 28 22 27 27 25 15 22 14 11 16 9 13 20 14 26 7 8 15 11 9 13 25 21 37 38 31
18 19 19 19 19 19 20 22 24 26 28 29 29 29 28 19 9 2 11 14 21 29 31 28 21 17 7 11 21 4 18 29 28 23 14 12 16 22 23 30 35 35 39 41 35
19 19 20 21 22 22 21 20 20 22 24 25 24 23 24 16 25 6 12 7 4 13 26 32 31 22 10 9 16 9 12 20 25 26 27 23 19 20 30 46 39 37 39 40 36
20 21 21 21 22 22 21 22 22 21 22 22 20 17 18 20 30 29 37 24 15 7 6 25 20 28 11 10 9 9 20 24 20 30 32 22 19 20 36 37 35 36 38 40 39
23 23 23 23 24 24 24 23 23 23 23 21 18 16 25 43 24 21 18 37 35 31 28 19 23 19 11 2 12 11 6 8 13 20 10 21 12 19 46 32 31 36 40 41 39
22 22 23 24 25 25 25 26 26 27 27 24 18 12 19 22 27 32 35 29 25 27 29 23 18 25 6 3 1 3 3 3 5 6 8 12 11 21 33 29 35 34 33 35 36
24 25 25 24 25 26 26 26 27 27 24 19 11 10 18 15 27 30 33 40 36 27 18 11 24 17 5 8 7 2 11 10 7 8 4 8 10 17 21 13 23 31 36 34 37
22 23 25 26 27 25 26 27 21 14 10 2 5 6 15 12 11 15 13 22 30 18 25 15 12 6 6 8 17 6 5 6 9 2 4 9 13 19 35 19 25 28 35 40 40
23 23 23 23 26 27 25 25 8 3 7 8 9 19 27 15 13 6 11 12 21 17 11 13 8 22 23 17 6 5 12 16 5 3 7 10 8 15 24 13 18 29 34 40 41
24 25 24 23 23 25 21 5 5 8 12 24 31 35 39 39 19 24 12 11 12 15 12 6 29 22 13 17 17 12 13 16 8 3 6 10 13 16 15 18 20 29 36 37 30
24 23 23 24 24 19 9 6 7 18 6 17 28 19 24 26 25 40 17 13 7 13 24 25 26 15 17 13 16 17 20 16 10 5 5 7 12 14 12 14 19 25 23 22 23
24 22 23 24 16 12 15 0 12 12 4 8 5 8 7 9 10 42 27 13 7 18 18 18 21 20 12 20 16 19 16 15 11 3 6 5 6 10 9 16 7 21 23 22 18
22 23 23 19 21 12 10 9 7 3 5 2 3 0 14 9 13 15 46 24 10 10 10 13 18 21 23 24 20 13 10 9 8 7 2 3 4 6 5 10 14 11 25 24 19
24 26 24 20 17 10 5 8 1 2 8 4 6 14 10 5 16 11 18 25 13 6 9 11 12 23 10 12 16 7 5 4 3 1 8 13 7 4 6 10 6 5 9 14 10
27 24 21 17 16 11 9 3 2 4 6 5 9 15 15 15 9 5 9 20 10 11 13 5 14 2 7 6 7 7 8 1 3 0 5 6 7 13 10 9 9 11 15 6 11
27 23 16 8 8 6 0 2 6 4 4 12 12 14 9 16 12 23 4 8 18 2 9 8 5 17 6 10 9 16 10 6 5 3 5 7 8 7 13 15 21 22 16 11 18
29 19 9 13 4 7 2 2 3 4 4 10 13 6 4 11 5 11 6 7 2 16 4 6 6 4 14 7 20 8 10 10 2 1 1 4 7 7 6 7 3 0 8 17 20
29 11 16 11 3 6 1 3 3 5 7 5 5 4 7 12 7 10 9 13 11 10 3 4 3 5 14 6 19 11 11 7 6 6 4 5 5 5 3 7 3 4 8 17 21
15 5 11 11 6 2 1 4 4 10 8 4 3 4 9 12 4 3 6 12 21 22 10 7 1 2 10 13 13 5 6 3 7 5 5 1 6 7 9 7 8 9 17 24 25
12 3 8 8 3 2 1 3 8 8 10 7 4 8 10 8 5 2 5 6 22 17 10 3 3 3 13 7 20 17 10 7 8 10 4 4 5 4 9 6 6 9 16 18 22
11 5 5 7 3 2 4 4 4 5 6 3 5 4 7 6 5 8 2 2 11 15 13 8 4 2 2 3 3 21 20 11 5 4 16 4 5 3 5 4 9 11 18 19 22
7 4 4 4 2 3 5 6 4 9 9 4 4 6 4 5 7 6 6 2 5 11 17 13 3 5 8 2 5 5 16 18 9 3 4 10 3 5 4 7 6 10 18 21 23
8 2 3 4 4 8 7 4 5 6 6 9 4 1 5 3 6 3 7 5 2 7 6 6 4 3 14 12 8 0 9 20 17 21 11 4 7 6 8 9 7 17 20 23 24
7 4 5 7 11 6 4 3 4 6 4 4 3 9 7 4 5 8 9 5 1 1 1 3 4 6 4 6 14 10 11 10 24 20 18 3 11 8 5 5 9 21 25 26 28
7 10 7 6 4 3 2 4 9 12 11 9 9 12 11 12 5 14 18 17 7 2 1 2 3 6 4 7 4 11 22 12 5 12 15 11 22 4 5 8 12 23 28 31 32
Wind_Direction
310 301 297 295 295 297 294 294 291 287 284 284 280 278 277 278 274 268 258 260 264 260 254 232 216 222 216 211 198 187 130 239 239 187 245 173 329 278 295 284 294 288 290 297 298
324 315 306 300 295 291 294 295 293 291 289 286 284 280 278 279 280 272 263 259 249 253 252 241 222 206 198 217 198 184 191 223 216 208 247 256 224 300 309 304 285 294 302 304 308
343 341 337 323 307 300 296 295 293 292 290 286 282 281 280 284 291 280 273 266 244 242 241 241 229 205 194 204 200 204 225 231 264 245 267 290 296 304 280 285 285 291 301 305 301
337 334 334 332 332 327 319 307 300 296 290 287 286 282 276 278 242 297 228 198 216 219 224 219 202 183 196 205 214 218 233 238 248 260 274 265 288 284 287 273 282 291 293 295 290
334 330 328 326 326 325 325 324 318 308 299 292 287 286 284 258 236 234 201 177 40 206 212 202 189 186 178 216 217 230 240 247 254 268 269 275 260 267 280 280 285 289 291 292 289
327 326 325 324 323 323 322 318 314 310 307 302 296 287 277 253 260 251 243 239 247 272 250 201 207 203 205 221 185 201 237 253 268 264 263 270 276 276 272 274 281 287 290 294 293
328 326 324 323 321 318 317 316 311 311 309 303 298 284 264 250 249 262 257 246 245 248 252 253 213 200 217 289 247 243 233 263 244 254 253 266 270 255 268 281 282 282 287 288 289
325 323 321 321 320 318 317 310 308 311 304 291 281 281 260 272 270 255 246 249 240 242 245 247 241 231 229 217 38 192 178 241 241 206 250 181 267 269 272 271 274 280 287 288 289
323 323 322 320 319 318 317 310 314 309 303 288 261 246 273 275 261 270 252 240 239 242 233 213 220 220 206 227 283 255 254 250 292 231 239 177 277 267 280 279 276 280 286 287 289
327 324 324 324 322 321 320 319 319 315 328 43 216 263 265 264 310 289 295 241 226 226 217 215 211 191 183 173 216 203 236 235 235 260 227 258 258 277 277 270 267 281 286 287 291
332 328 326 322 322 325 329 335 357 315 328 276 246 254 283 290 322 218 274 213 200 197 177 180 198 218 207 208 206 206 229 242 248 202 243 244 256 265 281 267 269 278 280 290 293
334 332 328 326 323 321 323 356 51 321 297 292 279 257 269 274 282 274 237 151 183 196 156 168 227 219 196 204 208 211 237 248 264 198 228 271 273 273 278 273 264 273 279 279 285
334 333 330 325 326 321 342 6 333 334 270 286 263 251 246 249 231 255 236 196 173 184 190 200 225 199 195 194 205 214 221 236 238 307 262 311 291 279 280 278 270 272 277 290 275
331 330 331 324 325 325 324 224 325 323 299 272 220 251 235 240 247 233 224 210 191 191 195 228 223 194 191 207 194 222 215 236 253 255 255 132 284 290 300 296 278 285 296 287 285
336 329 323 318 305 306 313 306 303 160 318 246 180 306 321 187 306 233 218 229 202 169 166 213 178 199 204 204 193 224 178 211 225 231 208 240 278 266 268 279 281 271 286 279 273
332 328 322 315 296 314 317 326 241 110 245 319 27 340 329 231 259 279 175 211 222 184 246 213 200 196 176 189 197 169 143 80 31 140 258 255 204 245 231 233 261 266 275 297 248
333 329 321 303 285 303 312 301 123 202 338 26 339 336 329 355 1 342 232 196 186 188 207 168 232 197 159 174 164 131 98 258 335 242 225 192 187 244 252 235 233 256 275 293 195
338 335 330 331 283 268 267 76 226 286 308 351 340 319 347 14 338 339 266 223 241 243 167 173 202 199 177 184 171 184 161 155 199 214 249 161 204 245 224 232 246 255 260 198 189
342 347 23 5 326 147 151 190 246 328 24 337 342 335 350 4 10 343 321 355 300 238 252 162 234 166 185 164 180 176 201 175 63 173 312 225 276 305 227 261 280 330 187 183 179
342 353 10 353 101 147 101 243 272 333 331 323 309 299 325 343 348 348 310 30 348 343 277 244 167 190 203 147 187 174 145 178 194 196 231 274 272 225 220 227 291 217 194 185 175
351 12 9 19 163 153 235 267 297 292 326 314 313 310 305 314 325 21 299 317 4 349 349 0 107 255 137 198 172 152 167 145 164 159 163 298 262 221 224 216 226 215 184 189 175
358 33 349 340 12 31 279 274 312 289 292 281 263 246 251 294 326 266 259 287 348 341 343 306 321 217 211 161 195 198 174 158 189 196 206 157 267 221 229 242 221 209 176 184 183
342 309 351 1 34 315 297 284 263 290 289 325 305 288 308 294 306 232 266 226 323 336 354 334 304 148 47 320 139 203 203 199 117 107 210 177 252 318 323 271 223 200 174 176 177
353 345 350 44 20 309 322 300 287 290 286 262 260 283 281 274 299 287 276 242 351 330 334 336 283 272 218 206 134 160 207 210 193 158 185 213 187 261 280 264 242 187 182 172 178
8 332 328 320 328 322 309 284 291 329 316 309 298 241 324 301 308 346 15 321 79 45 348 3 273 290 309 291 286 153 185 201 204 215 208 187 234 225 245 242 242 187 174 170 179
2 333 312 281 292 320 321 277 328 337 307 313 290 313 311 272 260 287 295 310 333 111 329 290 283 345 300 270 272 264 263 229 204 208 227 182 252 212 250 161 177 172 178 181 188
339 328 294 281 297 296 271 308 307 313 289 234 300 311 301 294 325 291 273 264 220 199 136 261 303 4 305 340 267 263 238 233 218 221 202 197 234 146 200 219 198 178 193 194 197